Location: Ottawa
(45.4170°N, 75.7000°W)
Time: 05:49:48
(UTC-05:00)

ISS - Visible Passes

Search period start: 30 January 2023 00:00
Search period end: 09 February 2023 00:00
Orbit: 413 x 419 km, 51.6° (Epoch: 30 January)

Date Brightness Start Highest point End Pass type
(mag) Time Alt. Az. Time Alt. Az. Time Alt. Az.
30 Jan -3.8 18:44:51 10° WNW 18:48:13 71° NNE 18:48:41 59° E visible
31 Jan -3.4 17:56:12 10° NW 17:59:29 50° NNE 18:02:22 13° E visible
31 Jan -1.7 19:33:05 10° WNW 19:35:17 27° WSW 19:35:17 27° WSW visible
01 Feb -3.0 18:44:13 10° WNW 18:47:30 51° SW 18:49:07 26° SSE visible
02 Feb -3.7 17:55:25 10° WNW 17:58:48 82° SSW 18:02:09 10° ESE visible
02 Feb -0.8 19:33:24 10° WSW 19:35:02 13° SW 19:36:04 12° SSW visible
03 Feb -1.3 18:43:51 10° W 18:46:28 21° SW 18:49:04 10° S visible
04 Feb -2.0 17:54:43 10° WNW 17:57:48 34° SW 18:00:53 10° SSE visible
06 Feb -0.6 17:54:36 10° W 17:56:30 14° SW 17:58:24 10° SSW visible
